This is the latest recevied weather packets stored in our database for station/object F4GSP-4. If no packets are shown the sender has not sent any weather packets the latest 10 day(s).
| Time | Temp. | Humidity | Pressure | Rain* | Wind** | Luminosity | Snow |
|---|---|---|---|---|---|---|---|
| 1787959753 | 10.56° C | 84% | 1031.1 hPa | - | - | - | - |
| 1787958853 | 11.11° C | 83% | 1031.1 hPa | - | - | - | - |
| 1787957953 | 11.11° C | 83% | 1031.2 hPa | - | - | - | - |
| 1787957053 | 11.11° C | 83% | 1031.1 hPa | - | - | - | - |
| 1787956152 | 11.67° C | 83% | 1031.1 hPa | - | - | - | - |
| 1787955252 | 11.67° C | 83% | 1031 hPa | - | - | - | - |
| 1787954352 | 12.22° C | 83% | 1030.8 hPa | - | - | - | - |
| 1787953452 | 12.22° C | 83% | 1030.9 hPa | - | - | - | - |
| 1787952552 | 12.22° C | 83% | 1030.9 hPa | - | - | - | - |
| 1787951652 | 12.78° C | 83% | 1030.9 hPa | - | - | - | - |
| 1787950752 | 12.78° C | 83% | 1030.9 hPa | - | - | - | - |
| 1787949851 | 12.78° C | 83% | 1030.8 hPa | - | - | - | - |
| 1787948951 | 13.33° C | 83% | 1030.9 hPa | - | - | - | - |
| 1787948051 | 13.33° C | 82% | 1030.8 hPa | - | - | - | - |
| 1787947151 | 13.33° C | 82% | 1030.8 hPa | - | - | - | - |
| 1787946251 | 13.89° C | 82% | 1030.7 hPa | - | - | - | - |
| 1787945350 | 13.89° C | 82% | 1030.3 hPa | - | - | - | - |
| 1787944450 | 14.44° C | 81% | 1030.1 hPa | - | - | - | - |
| 1787943550 | 15° C | 81% | 1029.7 hPa | - | - | - | - |
| 1787942650 | 15.56° C | 80% | 1029.7 hPa | - | - | - | - |
| 1787941750 | 16.67° C | 79% | 1029.6 hPa | - | - | - | - |
| 1787940850 | 17.78° C | 78% | 1029.5 hPa | - | - | - | - |
| 1787939949 | 20.56° C | 78% | 1029.3 hPa | - | - | - | - |
| 1787939049 | 22.22° C | 78% | 1029.2 hPa | - | - | - | - |
| 1787938149 | 21.67° C | 78% | 1029.1 hPa | - | - | - | - |
* Rain since midnight (hover to see other rain measurements)
** Current wind speed in m/s (hover to see current wind gust speed)